TimeEDT,TemperatureF,Dew PointF,Humidity,Sea Level PressureIn,VisibilityMPH,Wind Direction,Wind SpeedMPH,Gust SpeedMPH,PrecipitationIn,Events,Conditions,WindDirDegrees,DateUTC
12:44 AM,71.6,62.6,73,30.17,10.0,North,1.2,-,N/A,,Drizzle,10,2013-08-17 04:44:00
12:53 AM,69.8,64.4,83,30.17,10.0,Variable,1.2,-,N/A,,Overcast,0,2013-08-17 04:53:00
12:58 AM,69.8,63.7,81,30.18,10.0,Variable,1.2,-,0.00,,Overcast,0,2013-08-17 04:58:00
1:58 AM,70.2,64.0,81,30.16,10.0,NNE,2.3,-,N/A,,Overcast,30,2013-08-17 05:58:00
2:43 AM,69.8,64.4,83,30.15,10.0,Calm,Calm,-,N/A,,Overcast,0,2013-08-17 06:43:00
2:58 AM,69.8,66.2,88,30.16,10.0,NNW,3.5,-,N/A,,Overcast,330,2013-08-17 06:58:00
3:58 AM,70.3,64.4,81,30.16,10.0,North,3.5,-,N/A,,Overcast,10,2013-08-17 07:58:00
4:58 AM,70.0,64.8,83,30.16,10.0,North,4.6,-,N/A,,Overcast,10,2013-08-17 08:58:00
5:58 AM,70.2,65.3,85,30.18,10.0,North,2.3,-,N/A,,Overcast,360,2013-08-17 09:58:00
6:58 AM,70.3,65.7,85,30.18,10.0,North,2.3,-,N/A,,Mostly Cloudy,10,2013-08-17 10:58:00
7:13 AM,69.8,66.2,88,30.18,10.0,North,2.3,-,N/A,,Mostly Cloudy,360,2013-08-17 11:13:00
7:58 AM,71.6,66.9,85,30.19,10.0,NNE,3.5,-,N/A,,Mostly Cloudy,30,2013-08-17 11:58:00
8:13 AM,73.4,68.0,83,30.19,10.0,East,8.1,-,N/A,,Mostly Cloudy,80,2013-08-17 12:13:00
8:58 AM,75.7,67.6,76,30.20,10.0,ENE,8.1,-,N/A,,Scattered Clouds,60,2013-08-17 12:58:00
9:08 AM,75.2,66.2,73,30.19,10.0,East,9.2,17.3,N/A,,Mostly Cloudy,80,2013-08-17 13:08:00
9:18 AM,75.2,66.2,73,30.19,10.0,ENE,11.5,-,N/A,,Mostly Cloudy,60,2013-08-17 13:18:00
9:58 AM,75.7,64.8,69,30.20,10.0,ENE,8.1,21.9,N/A,,Overcast,70,2013-08-17 13:58:00
10:58 AM,76.5,64.2,66,30.21,10.0,East,12.7,18.4,N/A,,Scattered Clouds,80,2013-08-17 14:58:00
11:58 AM,77.2,62.4,60,30.22,10.0,East,11.5,16.1,N/A,,Overcast,80,2013-08-17 15:58:00
12:58 PM,77.7,61.3,57,30.21,10.0,ENE,10.4,-,N/A,,Mostly Cloudy,60,2013-08-17 16:58:00
1:58 PM,76.8,63.1,63,30.20,10.0,East,12.7,18.4,N/A,,Overcast,80,2013-08-17 17:58:00
2:43 PM,77.0,66.2,69,30.18,10.0,ENE,11.5,-,N/A,,Mostly Cloudy,70,2013-08-17 18:43:00
2:58 PM,75.4,66.4,73,30.19,10.0,ENE,11.5,-,N/A,,Overcast,60,2013-08-17 18:58:00
3:58 PM,74.3,68.4,82,30.17,10.0,Variable,5.8,-,N/A,,Overcast,0,2013-08-17 19:58:00
4:11 PM,75.2,68.0,78,30.16,8.0,ENE,9.2,-,N/A,,Light Drizzle,60,2013-08-17 20:11:00
4:16 PM,73.4,69.8,88,30.16,7.0,ENE,8.1,-,N/A,,Light Drizzle,60,2013-08-17 20:16:00
4:21 PM,73.4,69.8,88,30.16,8.0,ENE,9.2,-,N/A,,Overcast,60,2013-08-17 20:21:00
4:58 PM,73.2,69.3,87,30.17,10.0,NE,9.2,-,0.00,,Overcast,50,2013-08-17 20:58:00
5:13 PM,73.4,68.0,83,30.16,10.0,NE,9.2,-,N/A,,Overcast,50,2013-08-17 21:13:00
5:58 PM,74.3,68.2,81,30.18,10.0,NE,6.9,-,N/A,,Mostly Cloudy,40,2013-08-17 21:58:00
6:08 PM,75.2,68.0,78,30.16,10.0,ENE,9.2,-,N/A,,Overcast,60,2013-08-17 22:08:00
6:13 PM,75.2,68.0,78,30.16,10.0,NE,6.9,-,N/A,,Overcast,50,2013-08-17 22:13:00
6:18 PM,75.2,68.0,78,30.16,10.0,NE,9.2,-,N/A,,Overcast,40,2013-08-17 22:18:00
6:19 PM,75.2,68.0,78,30.16,10.0,NE,9.2,-,N/A,,Light Drizzle,40,2013-08-17 22:19:00
6:24 PM,75.2,68.0,78,30.16,9.0,NE,8.1,-,N/A,Rain,Light Rain,50,2013-08-17 22:24:00
6:29 PM,75.2,69.8,83,30.15,10.0,NE,9.2,-,N/A,Rain,Light Rain,50,2013-08-17 22:29:00
6:34 PM,73.4,69.8,88,30.15,10.0,ENE,10.4,-,N/A,,Mostly Cloudy,60,2013-08-17 22:34:00
6:54 PM,75.2,68.0,78,30.15,9.0,ENE,10.4,16.1,N/A,,Drizzle,60,2013-08-17 22:54:00
6:58 PM,74.5,68.5,82,30.16,9.0,ENE,10.4,16.1,0.00,,Light Drizzle,60,2013-08-17 22:58:00
7:04 PM,73.4,68.0,83,30.15,10.0,ENE,9.2,18.4,N/A,,Mostly Cloudy,70,2013-08-17 23:04:00
7:26 PM,73.4,68.0,83,30.16,9.0,ENE,11.5,17.3,N/A,,Light Drizzle,60,2013-08-17 23:26:00
7:58 PM,72.9,69.1,88,30.17,7.0,ENE,9.2,-,0.00,Rain,Light Rain,70,2013-08-17 23:58:00
8:03 PM,73.4,69.8,88,30.16,7.0,ENE,10.4,-,N/A,Rain,Light Rain,70,2013-08-18 00:03:00
8:18 PM,71.6,69.8,94,30.16,8.0,NE,8.1,-,N/A,Rain,Light Rain,50,2013-08-18 00:18:00
8:23 PM,71.6,69.8,94,30.16,9.0,NE,6.9,-,N/A,Rain,Light Rain,50,2013-08-18 00:23:00
8:28 PM,71.6,69.8,94,30.16,10.0,ENE,8.1,-,N/A,,Drizzle,60,2013-08-18 00:28:00
8:48 PM,71.6,69.8,94,30.17,6.0,ENE,6.9,-,N/A,Rain,Rain,70,2013-08-18 00:48:00
8:58 PM,71.8,69.4,92,30.18,5.0,NE,8.1,-,0.07,Rain,Light Rain,50,2013-08-18 00:58:00
9:28 PM,71.6,69.8,94,30.17,6.0,ENE,6.9,-,N/A,Rain,Rain,60,2013-08-18 01:28:00
9:38 PM,71.6,69.8,94,30.17,6.0,NE,6.9,-,N/A,Rain,Heavy Rain,50,2013-08-18 01:38:00
9:58 PM,71.2,69.1,93,30.18,4.0,ENE,9.2,-,0.24,Rain,Rain,70,2013-08-18 01:58:00
10:23 PM,71.6,69.8,94,30.16,9.0,ENE,9.2,-,N/A,Rain,Light Rain,60,2013-08-18 02:23:00
10:39 PM,71.6,69.8,94,30.16,10.0,ENE,10.4,-,N/A,,Mostly Cloudy,60,2013-08-18 02:39:00
10:54 PM,71.6,69.8,94,30.16,10.0,ENE,9.2,-,N/A,,Light Drizzle,60,2013-08-18 02:54:00
10:58 PM,71.8,69.6,93,30.17,10.0,ENE,9.2,-,0.04,,Light Drizzle,70,2013-08-18 02:58:00
11:17 PM,71.6,69.8,94,30.16,10.0,ENE,9.2,-,N/A,,Overcast,70,2013-08-18 03:17:00
11:27 PM,71.6,69.8,94,30.15,10.0,ENE,9.2,-,N/A,,Drizzle,70,2013-08-18 03:27:00
11:39 PM,71.6,69.8,94,30.15,10.0,ENE,8.1,-,N/A,,Overcast,70,2013-08-18 03:39:00
11:43 PM,71.6,69.8,94,30.15,10.0,ENE,8.1,-,N/A,,Drizzle,60,2013-08-18 03:43:00
11:53 PM,71.6,69.8,94,30.15,5.0,East,6.9,-,N/A,Rain,Rain,80,2013-08-18 03:53:00
11:58 PM,72.1,69.8,92,30.16,4.0,East,8.1,-,0.02,Rain,Rain,80,2013-08-18 03:58:00